TimeEST,TemperatureF,Dew PointF,Humidity,Sea Level PressureIn,VisibilityMPH,Wind Direction,Wind SpeedMPH,Gust SpeedMPH,PrecipitationIn,Events,Conditions,WindDirDegrees,DateUTC
12:16 AM,16.7,14.0,89,29.70,10.0,Calm,Calm,-,N/A,,Overcast,0,2013-01-19 05:16:00
12:37 AM,16.7,14.0,89,29.70,10.0,Calm,Calm,-,N/A,Snow,Light Snow,0,2013-01-19 05:37:00
12:57 AM,16.7,14.0,89,29.69,10.0,Calm,Calm,-,N/A,,Overcast,0,2013-01-19 05:57:00
1:16 AM,16.3,13.8,90,29.69,10.0,Calm,Calm,-,N/A,,Overcast,0,2013-01-19 06:16:00
1:37 AM,16.2,13.8,90,29.69,10.0,Calm,Calm,-,N/A,,Overcast,0,2013-01-19 06:37:00
1:57 AM,15.8,13.6,91,29.69,10.0,Calm,Calm,-,N/A,,Overcast,0,2013-01-19 06:57:00
2:17 AM,15.8,13.3,90,29.69,10.0,Calm,Calm,-,N/A,,Overcast,0,2013-01-19 07:17:00
2:37 AM,14.9,12.9,92,29.69,10.0,Calm,Calm,-,N/A,,Scattered Clouds,0,2013-01-19 07:37:00
2:57 AM,12.4,10.2,91,29.72,10.0,Calm,Calm,-,N/A,,Scattered Clouds,0,2013-01-19 07:57:00
3:17 AM,11.7,9.9,92,29.71,10.0,Calm,Calm,-,N/A,,Scattered Clouds,0,2013-01-19 08:17:00
3:37 AM,12.2,10.2,92,29.72,7.0,Calm,Calm,-,N/A,,Clear,0,2013-01-19 08:37:00
3:57 AM,11.7,9.5,91,29.73,5.0,Calm,Calm,-,N/A,,Clear,0,2013-01-19 08:57:00
4:16 AM,7.9,5.0,88,29.73,7.0,Calm,Calm,-,N/A,,Scattered Clouds,0,2013-01-19 09:16:00
4:37 AM,9.7,7.2,90,29.72,7.0,Calm,Calm,-,N/A,,Mostly Cloudy,0,2013-01-19 09:37:00
4:57 AM,11.1,8.6,90,29.71,10.0,Calm,Calm,-,N/A,,Scattered Clouds,0,2013-01-19 09:57:00
5:17 AM,8.6,6.3,90,29.73,10.0,Calm,Calm,-,N/A,,Mostly Cloudy,0,2013-01-19 10:17:00
5:37 AM,11.7,9.3,90,29.73,10.0,Calm,Calm,-,N/A,,Overcast,0,2013-01-19 10:37:00
5:57 AM,12.9,10.6,90,29.73,10.0,Calm,Calm,-,N/A,,Overcast,0,2013-01-19 10:57:00
6:50 AM,14.0,12.2,93,29.72,10.0,Calm,Calm,-,N/A,,Overcast,0,2013-01-19 11:50:00
7:50 AM,14.0,12.2,93,29.71,10.0,Calm,Calm,-,N/A,,Overcast,0,2013-01-19 12:50:00
8:50 AM,15.8,14.0,93,29.68,10.0,Calm,Calm,-,N/A,,Overcast,0,2013-01-19 13:50:00
9:50 AM,15.8,14.0,93,29.67,7.0,Calm,Calm,-,N/A,,Overcast,0,2013-01-19 14:50:00
10:50 AM,19.4,17.6,93,29.64,5.0,South,9.2,-,N/A,,Overcast,190,2013-01-19 15:50:00
11:50 AM,21.2,17.6,86,29.63,7.0,SW,10.4,-,N/A,Snow,Light Snow,220,2013-01-19 16:50:00
12:45 PM,21.2,19.4,93,29.57,10.0,SSW,11.5,-,N/A,,Overcast,200,2013-01-19 17:45:00
1:50 PM,23.0,21.2,93,29.50,7.0,SSW,12.7,-,N/A,,Overcast,210,2013-01-19 18:50:00
2:50 PM,26.6,24.8,93,29.47,5.0,SW,8.1,-,N/A,,Overcast,220,2013-01-19 19:50:00
3:50 PM,28.4,24.8,86,29.41,3.0,South,10.4,-,N/A,Snow,Light Snow,190,2013-01-19 20:50:00
4:18 PM,28.4,26.6,93,29.40,5.0,SSW,11.5,-,N/A,,Overcast,210,2013-01-19 21:18:00
4:50 PM,28.4,26.6,93,29.40,2.5,SW,9.2,-,N/A,Snow,Light Snow,220,2013-01-19 21:50:00
6:50 PM,30.2,24.8,80,29.41,5.0,WNW,18.4,27.6,N/A,Snow,Light Snow,290,2013-01-19 23:50:00
7:50 PM,26.6,21.2,80,29.42,7.0,WNW,27.6,32.2,N/A,,Mostly Cloudy,300,2013-01-20 00:50:00
8:50 PM,23.0,17.6,80,29.44,7.0,NW,19.6,26.5,N/A,Snow,Light Snow,310,2013-01-20 01:50:00
9:50 PM,17.6,10.4,73,29.50,2.5,NNW,23.0,35.7,N/A,Snow,Light Snow,330,2013-01-20 02:50:00
10:17 PM,15.4,8.2,73,29.53,3.0,NW,25.3,40.3,N/A,,Haze,320,2013-01-20 03:17:00
10:37 PM,14.2,6.8,73,29.55,5.0,NW,20.7,31.1,N/A,Snow,Light Snow,310,2013-01-20 03:37:00
10:57 PM,13.6,6.8,74,29.56,7.0,NW,24.2,31.1,N/A,Snow,Light Snow,310,2013-01-20 03:57:00
11:17 PM,12.4,5.7,75,29.58,7.0,NW,18.4,31.1,N/A,,Mostly Cloudy,320,2013-01-20 04:17:00
11:37 PM,11.3,4.8,75,29.59,5.0,NW,21.9,27.6,N/A,,Haze,320,2013-01-20 04:37:00
11:57 PM,10.9,4.5,75,29.61,4.0,NW,21.9,29.9,N/A,Snow,Light Snow,320,2013-01-20 04:57:00